Location: Wald
(31.7579°N, 86.6655°W)
Time: 20:43:40
(UTC+00:00)

CZ-2D R/B - Pass Details

Date: 14 July 2020
Orbit: 552 x 639 km, 97.9° (Epoch: 13 August)

Event Time Altitude Azimuth Distance (km) Brightness Sun altitude
Rises 09:08:06 0° 4° (N) 2,905 7.7 -19.1°
Reaches altitude 10° 09:10:23 10° 359° (N) 1,983 6.7 -18.7°
Maximum altitude 09:14:31 47° 286° (WNW) 810 3.9 -18.0°
Enters shadow 09:15:38 37° 243° (WSW) 942 4.0 -17.9°
